Other Public Products
Issued by NWS Grand Forks, ND

Home | Current Version | Previous Version | Text Only | Print | Product List | Glossary Off
Versions: 1 2 3 4 5 6 7 8 9 10 11 12 13 14 15 16 17 18 19 20 21 22 23 24 25 26 27 28 29 30 31 32 33 34 35 36 37 38 39 40 41 42 43 44 45 46 47 48 49 50

000
FPUS83 KFGF 050031
OPUFGF
PRAIRIE TO PINES WEATHER ROUNDUP
NATIONAL WEATHER SERVICE EASTERN NORTH DAKOTA/GRAND FORKS ND
700 PM CDT MON MAY 04 2015

 **SATELLITE DATA USED TO AUGMENT SKY COVER AT AUTOMATED STATIONS**
 *****  WEATHER ACROSS EASTERN NORTH DAKOTA  *****

CITY           SKY/WX    TMP DP  RH WIND       PRES   REMARKS
GRAND FORKS    SUNNY     69  25  19 CALM      30.15S
6HR MIN TEMP:  64; 6HR MAX TEMP:  70;

GRAND FORKS AF SUNNY     68  24  19 N5        30.15S
GRAND CITY NWS   N/A     64 N/A N/A E5          N/A
BUXTON         NOT AVBL
DEVILS LAKE    SUNNY     66  27  22 SE7       30.13F
6HR MIN TEMP:  63; 6HR MAX TEMP:  66;

FARGO          MOSUNNY   68  26  20 W8        30.16S
6HR MIN TEMP:  64; 6HR MAX TEMP:  70;

WAHPETON ARPT  PTCLDY    66  19  16 NE3       30.18S
$$

 *****  WEATHER ACROSS CENTRAL AND WESTERN NORTH DAKOTA  *****

CITY           SKY/WX    TMP DP  RH WIND       PRES   REMARKS
JAMESTOWN      SUNNY     66  21  18 CALM      30.15S
6HR MIN TEMP:  63; 6HR MAX TEMP:  69;

BISMARCK       MOSUNNY   67  24  19 S14G22    30.14S
6HR MIN TEMP:  66; 6HR MAX TEMP:  70;

MINOT          SUNNY     69  25  19 S17       30.07F
6HR MIN TEMP:  65; 6HR MAX TEMP:  71;

MINOT AFB      SUNNY     72  27  18 S16G26    30.06S
6HR MIN TEMP:  67; 6HR MAX TEMP:  73;

GARRISON         N/A     67  30  25 S13       30.09F
6HR MIN TEMP:  65; 6HR MAX TEMP:  71;

WILLISTON      MOSUNNY   69  39  33 SE14G24   30.01F
6HR MIN TEMP:  68; 6HR MAX TEMP:  73;

DICKINSON      SUNNY     59  32  36 S23G30    30.08F
6HR MIN TEMP:  59; 6HR MAX TEMP:  65;

HETTINGER      CLOUDY    52  36  54 SE15      30.13F
6HR MIN TEMP:  52; 6HR MAX TEMP:  58;

$$

 *****  OTHER OBSERVATIONS NORTHEAST NORTH DAKOTA  *****

CITY           SKY/WX    TMP DP  RH WIND       PRES   REMARKS
WALHALLA       FAIR      66  27  22 NW5       30.13S
LANGDON        FAIR      66  25  20 CALM      30.14S
CAVALIER       FAIR      68  25  19 NE3       30.13S
GRAFTON        FAIR      68  28  22 W7        30.15S
CANDO          FAIR      66  25  20 SE7       30.13F
FORT TOTTEN    NOT AVBL
ROLLA          NOT AVBL
RUGBY          NOT AVBL
 ***** THE ABOVE OBSERVATIONS ARE NON NWS ARE NOT QUALITY
        CONTROLLED AND MAY MIS-REPORT RAIN FOR SNOW...
$$

 *****  OTHER OBSERVATIONS SOUTHEAST NORTH DAKOTA *****

CITY           SKY/WX    TMP DP  RH WIND       PRES   REMARKS
COOPERSTOWN    NOT AVBL
VALLEY CITY    FAIR      64  28  25 S8        30.16S
OAKES            N/A     66  27  22 SE6       30.17S
GWINNER        CLEAR     70  30  23 E6        30.18S
SHEYENNE NWR     N/A     69  25  19 NE2       29.95
BUFFALO        NOT AVBL
WYNDMERE       NOT AVBL
 ***** THE ABOVE OBSERVATIONS ARE NON NWS ARE NOT QUALITY
       CONTROLLED AND MAY MIS-REPORT RAIN FOR SNOW...
$$

  *****  WEATHER ACROSS NORTHERN MINNESOTA  *****

CITY           SKY/WX    TMP DP  RH WIND       PRES   REMARKS
FLAG ISLAND    MOSUNNY   55  34  44 SE5       30.15S
WARROAD        SUNNY     63  34  34 W7        30.17S
ROSEAU         MOSUNNY   66  25  20 W6        30.16S
HALLOCK        SUNNY     68  16  13 NW8       30.13S
THF RVR FALLS  SUNNY     64  25  22 S6        30.17F
6HR MIN TEMP:  61; 6HR MAX TEMP:  66;

HALSTAD          N/A     70  21  15 CALM        N/A
FOSSTON        SUNNY     66  23  19 CALM      30.18S
BAUDETTE       PTSUNNY   64  27  24 N7        30.17S
6HR MIN TEMP:  60; 6HR MAX TEMP:  65;

WASKISH        SUNNY     63  28  27 CALM      30.19S
CROOKSTON      SUNNY     66  27  22 CALM      30.17S
$$
  *****  WEATHER ACROSS CENTRAL AND WEST MINNESOTA  *****

CITY           SKY/WX    TMP DP  RH WIND       PRES   REMARKS
BEMIDJI        SUNNY     63  24  22 CALM      30.18S
PARK RAPIDS    SUNNY     65  28  24 SW6       30.18S
6HR MIN TEMP:  62; 6HR MAX TEMP:  67;

WADENA         MOSUNNY   63  30  29 CALM      30.19S
DETROIT LAKES  MOSUNNY   63  28  27 S6        30.20S
MOORHEAD       MOSUNNY   66  23  19 S8        30.17F
FERGUS FALLS   MOSUNNY   64  30  27 SE8       30.18S
ELBOW LAKE     FAIR      64  30  27 E8        30.18S
6HR MIN TEMP:  63; 6HR MAX TEMP:  66;

MORRIS MN      MOSUNNY   66  27  22 E5        30.17S
STAPLES        MOSUNNY   63  27  25 CALM      30.19S
WHEATON        MOSUNNY   64  28  25 CALM      30.18S
$$
  *****  WEATHER ELSEWHERE ACROSS MINNESOTA  *****

CITY           SKY/WX    TMP DP  RH WIND       PRES   REMARKS
DULUTH         MOSUNNY   65  17  15 NW6       30.18S
6HR MIN TEMP:  62; 6HR MAX TEMP:  67;

INTRNTL FALLS  MOSUNNY   62  26  25 W6        30.18S
6HR MIN TEMP:  58; 6HR MAX TEMP:  65;

ELY            SUNNY     61  21  21 CALM      30.20R
CLOQUET        MOSUNNY   64  10  12 NW3       30.19S
BRAINERD       MOSUNNY   63  21  20 N5        30.21R
6HR MIN TEMP:  61; 6HR MAX TEMP:  66;

HIBBING        SUNNY     64  18  17 NW5       30.18S
6HR MIN TEMP:  61; 6HR MAX TEMP:  67;

ALEXANDRIA     MOSUNNY   65  30  27 N6        30.19S
6HR MIN TEMP:  62; 6HR MAX TEMP:  67;

SAINT CLOUD    PTSUNNY   67  28  23 NE8       30.18R
6HR MIN TEMP:  66; 6HR MAX TEMP:  69;

MINNEAPOLIS    PTSUNNY   68  24  19 NE7       30.16S
6HR MIN TEMP:  66; 6HR MAX TEMP:  72;

$$

  *****  WEATHER ACROSS SOUTH DAKOTA  *****

CITY           SKY/WX    TMP DP  RH WIND       PRES   REMARKS
SIOUX FALLS    CLOUDY    69  29  22 SE15      30.12F
6HR MIN TEMP:  68; 6HR MAX TEMP:  72;

BROOKINGS      CLOUDY    68  25  19 E8        30.14S
WATERTOWN      CLOUDY    67  24  19 NE10      30.16F
6HR MIN TEMP:  65; 6HR MAX TEMP:  69;

HURON          PTSUNNY   70  25  18 SE12      30.12F
6HR MIN TEMP:  70; 6HR MAX TEMP:  75;

SISSETON         N/A     69  22  16 SE6       30.16S
ABERDEEN       CLOUDY    67  27  22 E7        30.15F
6HR MIN TEMP:  67; 6HR MAX TEMP:  70;

MITCHELL       CLOUDY    72  26  18 SE12      30.11F
PIERRE         CLOUDY    66  23  19 NE14      30.12F
6HR MIN TEMP:  63; 6HR MAX TEMP:  68;

MOBRIDGE       CLOUDY    66  24  20 S9        30.12F
RAPID CITY     MOSUNNY   59  32  36 SE22G28   30.11F
6HR MIN TEMP:  48; 6HR MAX TEMP:  59; 6HR PCP: TRACE;

$$

  *****  SOME WEATHER IN NEARBY STATES *****

CITY           SKY/WX    TMP DP  RH WIND       PRES   REMARKS
GLASGOW MT     SUNNY     73  41  31 SE26      29.87F
6HR MIN TEMP:  67; 6HR MAX TEMP:  75; 6HR PCP: TRACE;

GREAT FALLS MT SUNNY     76  12   8 W15       29.78F
6HR MIN TEMP:  65; 6HR MAX TEMP:  76;

CHEYENNE WY    CLOUDY    52  43  71 SE9       30.10S
6HR MIN TEMP:  50; 6HR MAX TEMP:  57; 6HR PCP:  0.01;

SCOTTSBLUFF NE PTSUNNY   61  36  39 SE17G23   30.08F
6HR MIN TEMP:  53; 6HR MAX TEMP:  62;

OMAHA NE       LGT RAIN  60  57  89 N14       30.06S
6HR MIN TEMP:  60; 6HR MAX TEMP:  67; 6HR PCP:  0.05;

DES MOINES IA  LGT RAIN  67  62  84 NE10      30.07F
6HR MIN TEMP:  67; 6HR MAX TEMP:  71; 6HR PCP:  0.02;

DAVENPORT IA   PTSUNNY   71  59  65 E10       30.09R
6HR MIN TEMP:  69; 6HR MAX TEMP:  74;

CHICAGO IL     MOCLDY    62  46  55 NE9       30.15R
6HR MIN TEMP:  62; 6HR MAX TEMP:  74; 6HR PCP: TRACE;

EAU CLAIRE WI  CLOUDY    67  28  23 NW3       30.16S
6HR MIN TEMP:  67; 6HR MAX TEMP:  71;

LA CROSSE WI   CLOUDY    69  44  40 NW10      30.13S
6HR MIN TEMP:  69; 6HR MAX TEMP:  75;

$$

  *****  SOME NATIONAL WEATHER *****

CITY           SKY/WX    TMP DP  RH WIND       PRES   REMARKS



USA.gov is the U.S. government's official web portal to all federal, state and local government web resources and services.